RH
96 96 94 95 97 97 98 97 97 96 96 96 95 95 95 93 86 87 88 89 92 89 87 90 90 91 90 91 93 86 87 94
97 98 96 97 97 97 98 95 98 97 96 96 97 95 95 94 88 87 83 89 88 89 89 92 90 92 94 94 91 94 98 96
96 98 98 98 98 97 98 95 97 95 92 96 99 93 89 91 90 88 84 92 90 90 93 93 93 92 94 93 91 91 96 91
97 97 98 98 94 98 98 94 97 96 84 96 98 97 90 81 88 89 90 92 92 93 95 95 94 92 96 94 94 78 93 91
95 95 97 98 97 94 98 98 98 94 81 93 97 96 95 92 98 94 98 94 98 98 99 99 96 94 92 96 87 89 91 88
91 91 95 97 98 93 89 95 91 93 86 83 92 97 98 96 94 98 98 97 93 93 93 98 96 91 84 84 83 84 93 90
94 93 93 95 98 97 94 90 88 85 93 86 80 91 94 94 96 96 97 93 94 92 97 98 97 92 84 87 75 82 90 90
90 93 90 92 95 96 98 98 96 96 94 88 93 85 92 96 96 97 98 97 95 95 98 96 98 95 96 93 87 78 85 92
88 90 91 91 90 97 96 95 96 97 96 96 88 95 97 96 95 97 97 98 98 98 98 97 98 96 92 96 81 75 83 88
80 77 90 88 88 91 95 92 95 95 95 94 96 95 95 95 94 96 97 98 98 98 98 98 97 96 97 94 87 75 78 85
81 80 90 90 91 94 95 94 90 95 95 93 93 95 93 93 93 94 96 97 97 97 98 93 94 97 96 95 92 79 77 79
84 86 90 93 96 97 98 98 95 97 95 93 94 92 94 94 94 95 94 96 97 98 96 94 91 94 92 91 97 83 77 82
52 82 96 98 99 99 100 98 98 97 98 92 95 94 94 94 95 96 94 95 95 96 97 95 97 96 97 99 98 93 82 80
67 64 64 75 88 97 97 97 97 92 93 96 95 96 96 95 95 96 95 95 97 96 93 95 97 95 94 96 99 99 95 82
69 74 78 76 65 70 97 98 99 99 99 97 96 97 97 94 94 96 95 93 96 96 94 92 95 97 92 94 98 95 93 88
65 64 69 83 87 74 90 97 96 97 94 95 95 95 96 97 95 95 95 94 95 95 94 92 91 97 95 79 80 80 86 96
66 65 65 76 87 91 95 93 96 98 98 95 95 95 91 96 97 96 96 95 94 95 96 94 91 90 90 89 78 82 62 73
65 66 78 83 86 90 91 93 95 99 99 98 98 98 95 95 97 96 95 96 97 96 95 94 95 91 89 85 80 75 75 67
61 64 72 81 85 91 92 92 94 96 98 98 97 98 99 98 97 98 98 97 96 95 95 96 94 94 91 89 84 73 66 61
65 67 72 75 83 89 92 91 95 94 96 98 94 93 93 93 97 97 96 97 97 96 96 95 94 95 92 90 90 83 84 69
Wind_Speed
11 11 13 13 14 14 13 13 12 13 13 13 13 13 15 16 16 14 13 10 11 11 10 8 10 11 8 9 6 7 6 5
12 10 10 10 10 15 15 14 14 13 13 13 12 13 16 15 15 14 12 11 11 10 9 6 7 10 9 9 6 9 6 6
9 10 10 9 7 9 13 14 14 13 12 12 11 7 10 13 11 13 11 13 12 11 10 10 9 12 11 11 8 4 5 4
9 10 10 9 7 7 7 9 9 9 9 9 7 7 7 9 10 14 12 13 13 12 11 11 7 3 4 10 3 6 4 5
12 12 12 12 9 8 5 5 6 7 11 9 8 6 5 5 4 6 5 9 5 6 5 3 5 4 5 3 5 7 5 5
14 12 13 12 8 9 9 7 7 6 9 12 8 7 7 6 5 5 5 5 7 7 5 3 4 4 5 9 6 6 4 4
15 14 13 12 11 9 9 10 10 11 8 11 11 9 9 7 6 6 6 8 7 7 5 4 4 4 5 5 7 9 8 5
14 15 14 13 11 12 9 8 8 8 9 11 11 10 9 8 7 7 7 8 8 7 6 6 3 1 4 4 3 7 8 7
14 15 14 15 15 12 10 10 9 9 8 9 14 10 9 10 8 8 8 7 9 6 4 4 5 4 8 7 4 6 8 8
17 15 16 16 15 12 8 9 8 8 8 8 12 12 11 10 8 8 8 7 8 7 7 6 5 5 4 5 4 6 9 9
15 16 16 16 11 9 8 9 8 7 7 8 12 11 12 10 9 8 9 8 8 8 6 8 7 5 4 4 3 5 7 8
11 11 12 12 9 7 5 5 5 4 7 8 11 11 13 11 9 11 11 9 8 8 9 7 7 7 5 5 3 3 6 8
9 10 7 7 4 5 3 6 6 5 6 9 8 11 13 12 8 10 11 12 12 10 5 9 5 5 5 2 3 2 5 6
10 9 9 6 3 3 4 4 5 8 7 6 7 9 12 12 12 10 12 10 11 12 12 6 3 8 5 5 4 4 2 4
10 9 9 6 4 3 3 3 3 3 4 5 7 8 10 13 14 12 13 11 12 13 12 13 9 8 9 5 4 5 5 5
8 8 8 6 6 3 5 5 8 7 9 8 8 9 10 12 13 13 14 10 12 13 12 13 11 10 8 9 3 5 7 5
7 8 9 6 7 6 5 4 1 1 2 8 10 9 11 10 13 13 13 11 12 14 13 12 10 10 10 10 9 3 11 6
8 11 12 11 7 6 6 5 1 2 3 6 6 5 6 9 11 12 11 11 12 11 13 14 12 9 10 11 13 10 10 9
10 13 13 7 8 8 7 5 3 6 5 6 6 4 3 6 10 11 10 11 11 11 12 12 12 12 13 11 10 11 7 10
12 13 8 7 7 8 6 5 3 3 5 4 5 5 7 10 11 11 12 12 11 11 9 10 12 11 13 12 10 11 7 8
Wind_Direction
151 161 163 164 161 161 160 159 162 162 162 167 161 154 149 149 145 138 149 158 151 162 165 173 144 137 141 119 109 131 123 144
154 159 162 164 170 163 163 161 164 165 167 169 158 151 151 153 157 155 152 156 159 158 163 149 149 138 135 119 121 116 131 139
157 159 166 163 159 174 165 162 164 169 167 168 146 157 156 156 167 166 161 157 161 169 167 174 180 168 148 136 136 129 131 141
174 165 166 164 166 166 171 166 169 173 179 162 158 159 165 162 168 168 170 161 165 169 171 179 176 191 129 118 136 155 152 152
183 173 168 169 172 172 176 175 169 175 182 165 166 156 169 160 155 168 163 164 157 154 158 163 183 171 121 140 141 139 137 152
180 176 171 174 166 177 180 180 181 178 190 185 171 168 175 171 172 166 160 160 174 175 181 183 196 182 156 142 150 140 140 150
184 171 175 176 176 173 179 187 187 189 188 193 189 184 179 171 174 174 166 172 175 181 176 172 171 205 140 129 158 148 145 146
180 183 178 171 183 181 177 178 182 185 188 193 194 194 183 175 171 179 173 176 178 176 167 164 149 114 63 74 158 148 149 140
186 186 177 178 182 178 178 180 175 183 186 186 195 192 182 174 176 180 178 177 168 153 154 164 165 176 176 144 176 163 151 155
191 189 184 185 184 181 178 179 179 180 178 184 192 188 181 176 179 182 172 170 169 171 167 165 160 155 166 157 157 164 166 164
183 190 188 187 182 172 176 177 184 180 180 184 190 188 182 181 181 179 168 173 175 175 173 171 169 156 160 136 133 164 171 162
163 175 185 177 171 161 157 165 195 173 188 189 182 189 186 188 185 177 172 169 177 177 176 180 171 162 165 160 150 169 179 176
115 131 155 148 146 151 154 188 195 192 201 196 174 187 190 188 192 181 175 177 180 180 161 172 155 149 123 161 182 153 174 192
121 121 135 154 139 155 154 163 194 202 199 192 190 190 186 178 180 191 179 176 166 175 177 173 150 172 167 139 189 188 207 189
115 118 117 123 180 114 74 65 53 158 189 209 202 187 184 185 180 182 180 178 172 175 182 179 179 185 183 156 148 202 152 196
99 100 101 94 105 147 174 188 192 201 198 200 199 209 198 179 181 181 180 182 182 184 183 188 179 187 184 219 192 149 170 152
91 80 57 77 88 88 133 169 206 355 173 181 200 209 203 183 173 182 187 186 186 181 178 192 195 183 188 194 217 205 197 164
78 67 48 46 60 59 50 29 278 167 173 201 205 208 200 182 178 182 182 179 177 181 184 192 191 197 196 199 197 199 196 187
95 78 65 53 47 34 17 0 314 222 215 215 205 187 189 191 180 185 186 183 181 182 188 194 198 201 194 202 203 209 202 203
95 98 92 70 55 47 17 343 293 266 207 237 226 208 212 194 188 188 187 180 183 184 191 196 202 200 205 206 203 210 199 200